This is the latest recevied weather packets stored in our database for station/object N5ZP. If no packets are shown the sender has not sent any weather packets the latest 10 day(s).
| Time | Temp. | Humidity | Pressure | Rain* | Wind** | Luminosity | Snow |
|---|---|---|---|---|---|---|---|
| 1788547050 | 34.44° C | 45% | 1010.8 hPa | 0 mm | - | 746 W/m² | - |
| 1788546744 | 34.44° C | 43% | 1011.1 hPa | 0 mm | - | 461 W/m² | - |
| 1788546439 | 35° C | 43% | 1010.9 hPa | 0 mm | - | 701 W/m² | - |
| 1788546163 | 35° C | 43% | 1011.1 hPa | 0 mm | - | 716 W/m² | - |
| 1788545830 | 34.44° C | 44% | 1011.2 hPa | 0 mm | - | 707 W/m² | - |
| 1788545529 | 34.44° C | 42% | 1011.2 hPa | 0 mm | - | 697 W/m² | - |
| 1788545226 | 35° C | 42% | 1011.3 hPa | 0 mm | - | 719 W/m² | - |
| 1788544921 | 35.56° C | 42% | 1011.5 hPa | 0 mm | - | 731 W/m² | - |
| 1788544626 | 35° C | 42% | 1011.4 hPa | 0 mm | - | 744 W/m² | - |
| 1788544318 | 35.56° C | 45% | 1011.4 hPa | 0 mm | - | 711 W/m² | - |
| 1788544013 | 35° C | 46% | 1011.5 hPa | 0 mm | - | 723 W/m² | - |
| 1788543710 | 34.44° C | 48% | 1011.4 hPa | 0 mm | - | 706 W/m² | - |
| 1788543405 | 33.89° C | 48% | 1011.8 hPa | 0 mm | - | 710 W/m² | - |
| 1788543100 | 33.89° C | 51% | 1011.7 hPa | 0 mm | - | 733 W/m² | - |
| 1788542797 | 32.78° C | 53% | 1011.9 hPa | 0 mm | - | 737 W/m² | - |
| 1788542495 | 32.78° C | 56% | 1011.8 hPa | 0 mm | - | 678 W/m² | - |
| 1788542190 | 32.22° C | 58% | 1012 hPa | 0 mm | - | 418 W/m² | - |
| 1788541886 | 32.22° C | 59% | 1011.9 hPa | 0 mm | - | 510 W/m² | - |
| 1788541582 | 31.67° C | 62% | 1012 hPa | 0 mm | - | 695 W/m² | - |
| 1788541278 | 32.78° C | 62% | 1012 hPa | 0 mm | - | 473 W/m² | - |
| 1788540976 | 33.33° C | 60% | 1012.1 hPa | 0 mm | - | 729 W/m² | - |
| 1788540676 | 32.22° C | 64% | 1012 hPa | 0 mm | - | 781 W/m² | - |
| 1788540370 | 31.11° C | 68% | 1012.2 hPa | 0 mm | - | 701 W/m² | - |
| 1788540067 | 31.11° C | 65% | 1012.1 hPa | 0 mm | - | 303 W/m² | - |
| 1788539778 | 30° C | 70% | 1012.1 hPa | 0 mm | - | 659 W/m² | - |
* Rain latest hour (hover to see other rain measurements)
** Current wind speed in m/s (hover to see current wind gust speed)